Anoka County, MN

1:29 AM CDT on October 23, 2019 (GMT -0500)
Anoka County / Blaine Airport

Weather History for KANE - August, 2019

Change the Weather History Date:

Wednesday, August 14, 2019

  Actual Average Record
Temperature  
Mean Temperature 68 °F -  
Max Temperature 75 °F 75 °F 93 °F (2015)
Min Temperature 60 °F 57 °F 44 °F (2004)
Cooling Degree Days 2    
Growing Degree Days 18 (Base 50)    
Moisture  
Dew Point 59 °F    
Average Humidity 82    
Maximum Humidity 100    
Minimum Humidity 44    
Precipitation  
Precipitation 0.03 in - - ()
Sea Level Pressure  
Sea Level Pressure 30.03 in    
Wind  
Wind Speed 7 mph (NNE)    
Max Wind Speed 10 mph    
Max Gust Speed -    
Visibility 10 miles    
Events Rain    
Averages and records for this station are not official NWS values.
T = Trace of Precipitation, MM = Missing Value Source: NWS Daily Summary

Daily Weather History Graph

Daily Weather History Graph

Search for Another Location

Airport or City:

Astronomy

Aug. 14, 2019 Rise Set
Actual Time 6:12 AM CDT 8:21 PM CDT
Civil Twilight 5:40 AM CDT 8:53 PM CDT
Nautical Twilight 5:00 AM CDT 9:33 PM CDT
Astronomical Twilight 4:16 AM CDT 10:16 PM CDT
Moon 8:18 PM CDT (8/14) 5:06 AM CDT (8/14)
Length of Visible Light 15h 12m
Length of Day
14h 08m
Waxing Gibbous, 99% of the Moon is Illuminated
Aug 14
Waxing Gibbous
Aug 15
Full
Aug 23
Last Quarter
Aug 30
New
Sep 5
First Quarter

Hourly Weather History & Observations

Time (CDT) Temp. Dew Point Humidity Pressure Visibility Wind Dir Wind Speed Gust Speed Precip Events Conditions
12:15 AM 66.2 °F 64.4 °F 94% 29.96 in 10.0 mi NE 9.2 mph - N/A   Overcast
12:35 AM 66.2 °F 62.6 °F 88% 29.97 in 10.0 mi NE 10.4 mph - 0.01 in   Overcast
12:39 AM 66.2 °F 62.6 °F 88% 29.97 in 10.0 mi NE 10.4 mph - 0.01 in   Overcast
12:58 AM 64.4 °F 62.6 °F 94% 29.98 in 10.0 mi NE 8.1 mph - N/A Rain Rain
1:15 AM 64.4 °F 62.6 °F 94% 29.98 in 7.0 mi NE 8.1 mph - N/A Rain Rain
1:35 AM 64.4 °F 62.6 °F 94% 29.98 in 10.0 mi NE 8.1 mph - N/A Rain Rain
1:56 AM 64.4 °F 62.6 °F 94% 29.98 in 10.0 mi NE 4.6 mph - N/A   Light Drizzle
2:19 AM 64.4 °F 62.6 °F 94% 29.98 in 10.0 mi NE 8.1 mph - 0.01 in   Overcast
2:36 AM 64.4 °F 62.6 °F 94% 29.98 in 10.0 mi NE 5.8 mph - 0.01 in   Overcast
2:56 AM 64.4 °F 62.6 °F 94% 29.98 in 10.0 mi NNE 5.8 mph - N/A Rain Light Rain
3:16 AM 64.4 °F 62.6 °F 94% 29.98 in 10.0 mi North 4.6 mph - 0.01 in Rain Rain
3:35 AM 62.6 °F 62.6 °F 100% 29.99 in 10.0 mi North 6.9 mph - 0.01 in Rain Light Rain
3:40 AM 62.6 °F 62.6 °F 100% 29.99 in 10.0 mi North 9.2 mph - 0.01 in Rain Light Rain
3:57 AM 62.6 °F 62.6 °F 100% 30.00 in 10.0 mi NNE 8.1 mph - N/A   Overcast
4:16 AM 62.6 °F 62.6 °F 100% 30.00 in 10.0 mi NNE 6.9 mph - N/A   Light Drizzle
4:36 AM 62.6 °F 60.8 °F 94% 30.01 in 10.0 mi NNE 8.1 mph - N/A   Mostly Cloudy
4:56 AM 62.6 °F 60.8 °F 94% 30.01 in 10.0 mi NNE 5.8 mph - N/A   Overcast
5:18 AM 60.8 °F 60.8 °F 100% 30.02 in 10.0 mi North 6.9 mph - 0.01 in   Overcast
5:37 AM 60.8 °F 60.8 °F 100% 30.02 in 10.0 mi NNE 6.9 mph - 0.01 in   Overcast
5:56 AM 60.8 °F 60.8 °F 100% 30.03 in 10.0 mi NNE 5.8 mph - N/A   Overcast
6:15 AM 60.8 °F 60.8 °F 100% 30.03 in 10.0 mi Calm Calm - N/A   Overcast
6:35 AM 60.8 °F 60.8 °F 100% 30.04 in 10.0 mi NNE 5.8 mph - N/A   Overcast
6:39 AM 60.8 °F 60.8 °F 100% 30.04 in 10.0 mi NNE 5.8 mph - N/A   Overcast
6:57 AM 60.8 °F 60.8 °F 100% 30.04 in 10.0 mi NNE 5.8 mph - N/A   Overcast
6:59 AM 60.8 °F 60.8 °F 100% 30.04 in 10.0 mi NNE 6.9 mph - N/A   Overcast
7:45 AM 60.8 °F 60.8 °F 100% 30.06 in 10.0 mi NNE 6.9 mph - N/A   Mostly Cloudy
9:45 AM 66.2 °F 62.6 °F 88% 30.07 in 10.0 mi North 8.1 mph - N/A   Scattered Clouds
10:45 AM 69.8 °F 60.8 °F 73% 30.07 in 10.0 mi NNE 9.2 mph - N/A   Scattered Clouds
11:45 AM 71.6 °F 57.2 °F 60% 30.07 in 10.0 mi NNE 10.4 mph - N/A   Partly Cloudy
12:45 PM 73.4 °F 55.4 °F 53% 30.08 in 10.0 mi NNE 9.2 mph - N/A   Scattered Clouds
1:45 PM 73.4 °F 53.6 °F 50% 30.08 in 10.0 mi NNW 4.6 mph - N/A   Mostly Cloudy
2:45 PM 75.2 °F 53.6 °F 47% 30.07 in 10.0 mi NNE 4.6 mph - N/A   Mostly Cloudy
3:48 PM 75.2 °F 51.8 °F 44% 30.05 in 10.0 mi NNE 6.9 mph - N/A   Mostly Cloudy
4:45 PM 75.2 °F 51.8 °F 44% 30.05 in 10.0 mi ENE 8.1 mph - N/A   Mostly Cloudy
5:46 PM 75.2 °F 51.8 °F 44% 30.04 in 10.0 mi ENE 8.1 mph - N/A   Mostly Cloudy
6:45 PM 75.2 °F 51.8 °F 44% 30.04 in 10.0 mi ENE 4.6 mph - N/A   Scattered Clouds
7:45 PM 73.4 °F 53.6 °F 50% 30.04 in 10.0 mi Calm Calm - N/A   Partly Cloudy
8:45 PM 68.0 °F 57.2 °F 68% 30.05 in 10.0 mi Calm Calm - N/A   Mostly Cloudy
9:49 PM 66.2 °F 57.2 °F 73% 30.06 in 10.0 mi Calm Calm - N/A   Mostly Cloudy
10:16 PM 66.2 °F 57.2 °F 73% 30.06 in 10.0 mi Calm Calm - N/A   Overcast
10:36 PM 68.0 °F 57.2 °F 68% 30.07 in 10.0 mi Calm Calm - N/A   Overcast
10:58 PM 66.2 °F 57.2 °F 73% 30.06 in 10.0 mi Calm Calm - N/A   Overcast
11:16 PM 66.2 °F 59.0 °F 78% 30.07 in 10.0 mi Calm Calm - N/A   Scattered Clouds
11:36 PM 66.2 °F 59.0 °F 78% 30.07 in 10.0 mi Calm Calm - N/A   Scattered Clouds
11:56 PM 68.0 °F 59.0 °F 73% 30.06 in 10.0 mi Calm Calm - N/A   Overcast